Location: *
(44.1392°N, 4.8079°E)
Time: 20:48:40
(UTC+00:00)

ERBS - Pass Details

Date: 21 June 2021
Orbit: 397 x 416 km, 57.0° (Epoch: 02 August)

Event Time Altitude Azimuth Distance (km) Brightness Sun altitude
Exits shadow 03:08:53 - 259° (W) 1,678 4.8 -7.6°
Reaches altitude 10° 03:09:31 10° 264° (W) 1,444 4.5 -7.5°
Maximum altitude 03:12:24 30° 327° (NNW) 754 3.7 -7.1°
Drops below altitude 10° 03:15:19 10° 31° (NNE) 1,457 6.5 -6.7°
Sets 03:17:34 0° 43° (NE) 2,323 8.6 -6.5°
